Regional Weather Roundup
Issued by NWS

Home | Current Version | Previous Version | Text Only | Print | Product List | Glossary On
Versions: 1 2 3 4 5 6 7 8 9 10 11 12 13 14 15 16 17 18 19 20 21 22 23 24 25 26 27 28 29 30 31 32 33 34 35 36 37 38 39 40 41 42 43 44 45 46 47 48 49 50
000
ASUS43 KMPX 200401
RWRMN
WEATHER ROUNDUP FOR MINNESOTA
NATIONAL WEATHER SERVICE TWIN CITIES/CHANHASSEN MN
1100 PM CDT WED JUL 19 2017


NOTE: "FAIR" INDICATES FEW OR NO CLOUDS BELOW 12,000 FEET WITH NO
SIGNIFICANT WEATHER AND/OR OBSTRUCTIONS TO VISIBILITY. N/A MEANS
CURRENT SKY AND/OR WEATHER CONDITIONS ARE NOT AVAILABLE.

MNZ060>063-068>070-200500-
   Twin Cities Metro

CITY           SKY/WX    TMP DP  RH WIND       PRES   REMARKS
TWIN CITIES    TSTM      69  67  93 E7        29.93R FOG
ST PAUL        LGT RAIN  69  69 100 NE5       29.94S FOG
CRYSTAL        CLOUDY    71  65  81 CALM      29.92F
BLAINE         CLOUDY    72  70  94 E3        29.94R
LAKEVILLE      CLOUDY    70  70 100 W5        29.96R
EDEN PRAIRIE   LGT RAIN  70  68  93 SE5       29.92F
SOUTH ST PAUL  RAIN      69  68  98 NE3       29.92S
LAKE ELMO      CLOUDY    68  68 100 CALM      29.96R
$$
MNZ001>005-007-008-013>017-022>024-027-028-200500-
   Northwest Minnesota

CITY           SKY/WX    TMP DP  RH WIND       PRES   REMARKS
BEMIDJI        CLEAR     69  63  80 SW6       29.93S
HALLOCK        FOG       64  64 100 CALM      29.89R VSB 1/2
ROSEAU         CLEAR     70  64  83 W3        29.89R
WARROAD        PTCLDY    64  61  88 W3        29.89R
CROOKSTON      CLEAR     72  66  83 W7        29.91R
FOSSTON        CLEAR     66  64  94 S7        29.93R
DETROIT LAKES  CLEAR     68  64  88 S6        29.96S
MOORHEAD       CLEAR     73  66  78 S7        29.93R
PARK RAPIDS    CLEAR     67  61  81 SW3       29.95R
MAHNOMEN       FAIR      67  65  93 S7        29.93R
$$
MNZ006-009>011-018-025>026-200500-
   North Central Minnesota

CITY           SKY/WX    TMP DP  RH WIND       PRES   REMARKS
BAUDETTE       CLOUDY    69  64  84 SW3       29.88R
FLAG ISLAND    CLEAR     70  63  78 W6        29.87R
INTL FALLS     CLOUDY    68  60  75 S3        29.89S
WASKISH        CLOUDY    70  64  83 S3        29.90S
BIG FORK       PTCLDY    63  57  82 S3        29.92F
LONGVILLE      CLEAR     63  61  94 SW3       29.94S
GRAND RAPIDS   CLEAR     65  58  78 S5        29.95
CRANE LAKE     CLOUDY    61  59  94 CALM      29.92F
ORR            MOCLDY    64  57  77 S5        29.90S
COOK           CLEAR     63  61  94 CALM      29.93S
WALKER         FAIR      67  61  81 SW5       29.93S
$$
MNZ012-019>021-037-200500-
   Northeast Minnesota

CITY           SKY/WX    TMP DP  RH WIND       PRES   REMARKS
DULUTH         PTCLDY    62  60  93 CALM      29.94S
ELY            CLEAR     64  57  77 CALM      29.94S
HIBBING        CLEAR     56  56 100 CALM      29.94R
EVELETH        CLEAR     60  57  89 CALM      29.95S
DULUTH HARBOR  CLEAR     63  59  88 E5        29.93S
TWO HARBORS    CLEAR     64  61  88 N3        29.92S
SILVER BAY     CLEAR     61  57  88 CALM      29.92S
GRAND MARAIS     N/A     60  57  89 CALM      29.93S
G MARAIS ARPRT CLOUDY    61  52  72 CALM      29.97S
$$
MNZ029>031-032-039>041-046>048-054>057-064-200500-
   West Central Minnesota

CITY           SKY/WX    TMP DP  RH WIND       PRES   REMARKS
FERGUS FALLS   CLEAR     70  66  88 CALM      29.94S
WHEATON        CLEAR     70  66  88 SE5       29.96S
MORRIS         PTCLDY    70  68  94 N3        29.94S
ALEXANDRIA     CLEAR     67  64  90 S3        29.96S
ELBOW LAKE     FAIR      68  67  98 W7        29.95S
WADENA         CLEAR     64  64 100 CALM      29.95S
GLENWOOD       CLEAR     66  64  94 CALM      29.96S
APPLETON       PTCLDY    73  66  78 NE7       29.92F
BENSON         PTCLDY    70  66  88 E3        29.94F
ORTONVILLE     PTCLDY    72  66  83 N8        29.93F
MADISON        PTCLDY    73  73 100 N6        29.93S
WILLMAR        MOCLDY    72  68  88 CALM      29.95S
$$
MNZ033>034-036-042>043-049>051-058-059-200500-
   Central Minnesota

CITY           SKY/WX    TMP DP  RH WIND       PRES   REMARKS
ST CLOUD       CLOUDY    67  66  97 S5        29.94R
SAUK CENTRE    FAIR      66  63  90 SW3       29.95R
PAYNESVILLE    CLOUDY    69  66  92 CALM      29.95F
AITKIN         CLEAR     57  55  94 CALM      29.92F
PINE RIVER     CLEAR     63  61  94 CALM      29.97F
BRAINERD       CLEAR     63  60  90 CALM      29.93F
STAPLES        CLEAR     64  61  88 CALM      29.95R
LONG PRAIRIE   FAIR      64  63  94 CALM      29.95F
LITTLE FALLS   PTCLDY    63  61  94 CALM      29.93F
LITCHFIELD     CLOUDY    70  68  94 NE6       29.93S
BUFFALO        RAIN      69  65  86 CALM      29.95S
MAPLE LAKE     TSTM      70  68  93 W3        29.97R
HUTCHINSON     MOCLDY    70  70  98 N6        29.94R
$$
MNZ037-044-045-052-053-200500-
   East Central Minnesota

CITY           SKY/WX    TMP DP  RH WIND       PRES   REMARKS
PRINCETON      CLOUDY    68  64  88 S5        29.95R
MORA           CLEAR     63  61  94 CALM      29.93F
CAMBRIDGE      CLOUDY    70  61  73 CALM      29.92S
RUSH CITY      CLOUDY    66  62  87 S3        29.93S
MOOSE LAKE     PTCLDY    61  59  94 CALM      29.91F FOG
HINCKLEY       MOCLDY    64  63  94 CALM      29.93S
CLOQUET        CLEAR     63  57  82 CALM      29.94S
MCGREGOR       CLEAR     63  59  88 CALM      29.94F
$$
MNZ071>073-080-081-089-090-097-098-200500-
   Southwest Minnesota

CITY           SKY/WX    TMP DP  RH WIND       PRES   REMARKS
MONTEVIDEO     CLEAR     72  66  83 E6        29.93S
GRANITE FALLS  PTCLDY    73  70  89 N8        29.92F
CANBY          PTCLDY    73  70  90 CALM      29.95R THUNDER
MARSHALL       LGT RAIN  72  71  97 N6        29.92R
REDWOOD FALLS  CLOUDY    71  67  87 N7        29.89S
OLIVIA         MOCLDY    70  66  88 N9        29.92R
PIPESTONE      CLOUDY    73  68  83 E5        29.92R
WINDOM         CLOUDY    73  66  78 SE3       29.89F
WORTHINGTON    CLOUDY    72  70  93 CALM      29.91R
JACKSON        CLOUDY    72  68  88 CALM      29.90S
TRACY          PTCLDY    72  72  99 CALM      29.90F
SLAYTON        HVY RAIN  70  67  90 NE5       29.92S
$$
MNZ065>067-074>077-082>085-091>093-200500-
   South Central Minnesota

CITY           SKY/WX    TMP DP  RH WIND       PRES   REMARKS
MANKATO        CLOUDY    70  68  93 E5        29.90S
NEW ULM        CLOUDY    70  66  88 E3        29.88F
ST JAMES       CLOUDY    70  66  88 N5        29.89S
FAIRMONT       CLOUDY    73  70  90 S3        29.88F
GLENCOE        CLOUDY    70  70 100 N3        29.92R
FARIBAULT      CLOUDY    72  66  83 NE8G17    29.94R
OWATONNA       CLOUDY    72  66  83 E6        29.93R
WASECA         CLOUDY    70  64  83 N3        29.93R
ALBERT LEA     CLOUDY    72  68  88 S6        29.91R
$$
MNZ078>079-086>088-094>096-200500-
   Southeast Minnesota

CITY           SKY/WX    TMP DP  RH WIND       PRES   REMARKS
ROCHESTER      CLOUDY    68  67  96 NE10      29.96R
RED WING       TSTM      70  68  94 SW7       29.92R VSB 1/2
STANTON        LGT RAIN  71  66  84 SE5       29.92R
DODGE CENTER   CLOUDY    68  66  94 E6        29.94R
WINONA         CLOUDY    72  66  83 N12G17    30.01R
AUSTIN         CLOUDY    72  66  83 S6        29.94R
PRESTON        CLOUDY    67  64  89 E5        29.96R
$$
ABBREVIATIONS USED IN REMARKS
   TC - TEMPERATURES IN CELSIUS
  WCI - WIND CHILL INDEX
   HX - HEAT INDEX
  VSB - VISIBILITY
$$




USA.gov is the U.S. government's official web portal to all federal, state and local government web resources and services.